Weather in Sheyno

Russia / Penza Oblast     53°21′47″N   43°12′33″E
temp.,
°C
wind,
m/s
gust,
m/s
humid.,
%
clouds,
%
prec.,
mm/h
press.,
hPa
HPBL,
m
6 august, fri
fri600:00+19ese3455100 0.0 101669
03:00+19sse3554100 0.0 1016101
06:00+19se3555100 0.0 1016104
09:00+19sse485765 0.1 1016241
12:00+22se475545 0.0 1016347
15:00+28sse563783 0.0 10141846
18:00+26se59495 0.0 1013363
21:00+21se61352100 0.0 1014290
7 august, sat
sat700:00+20se6135429 0.0 1014275
03:00+19sse5135427 0.0 1014278
06:00+18sse5135848 0.0 1015275
09:00+24sse61045100 0.0 1015481
12:00+28sse5634100 0.0 10151276
15:00+29se56325 0.0 10141810
18:00+27se47445 0.0 1014239
21:00+21ese4115314 0.0 1015179
8 august, sun
sun800:00+21se51249100 0.0 1015227
03:00+19ese4124982 0.0 1016182
06:00+19se41252100 0.0 1016234
09:00+25sse5741100 0.0 1016328
12:00+30sse5631100 0.0 1016905
15:00+32sse5627100 0.0 10162220
18:00+28se4941100 0.0 1016245
21:00+25sse3637100 0.0 101888
9 august, mon
mon900:00+23sse3440100 0.0 101858
03:00+22sse2242100 0.0 101919
06:00+23sse2245100 0.0 101921
09:00+27s344070 0.0 1019331
12:00+28w2140100 0.0 1019292
15:00+27sse1148100 0.0 102031
18:00+24sse1151100 0.0 101911
21:00+24sw1147100 0.0 101911
10 august, tue
tue1000:00+24ne354599 0.0 101984
03:00+23ene4749100 0.0 1018129
06:00+22e376048 0.0 1018127
09:00+28ese463855 0.0 1017444
12:00+31ese563097 0.0 10161665
15:00+32ese6728100 0.0 10152313
18:00+29e4842100 0.0 1014223
21:00+26ene51242100 0.0 1014293